Location: Nora Junction
(43.1400°N, 93.0163°W)
Time: 01:48:30
(UTC+00:00)

Cosmos 1140 Rocket - Pass Details

Date: 18 November 2025
Orbit: 740 x 761 km, 74.1° (Epoch: 08 December)

Event Time Altitude Azimuth Distance (km) Brightness Sun altitude
Rises 23:30:11 0° 215° (SW) 3,197 7.7 -8.4°
Reaches altitude 10° 23:32:38 10° 221° (SW) 2,273 7.0 -8.8°
Maximum altitude 23:37:35 47° 295° (WNW) 996 4.5 -9.7°
Drops below altitude 10° 23:42:33 10° 9° (N) 2,275 5.7 -10.6°
Sets 23:45:01 0° 16° (NNE) 3,199 6.4 -11.0°
